Zurück zum Katalog

THOR ABLESTAR DEB

AktivLEO
NORAD 325·DEBRIS·🇺🇸 United States

Gestartet Jun 29, 1961 von Cape Canaveral Space Force Station

Loading…

Nächste Überflüge (nächste 24 Stunden)

TLE

AktuellSource: Space-Track

Epoche: Sep 10, 2026, 22:48 UTC

1 00325U 61015DB  26253.95024990  .00000535  00000-0  26782-3 0  9990
2 00325  66.9122 243.7343 0059674 319.1889  40.4745 14.23244068345363

Verfolge THOR ABLESTAR DEB in Echtzeit mit AllMySat

Download on the App Store